This demonstration page uses our WeatherBlox Daily Observations layout. Learn more.

Left ArrowRight Arrow

36.19886, -115.1175

Hourly Observations for August 1, 2021

Temp ( °F °C ) Dew Point ( °F °C ) Humidity (%) Winds ( mph kmh ) Pressure ( in mb ) Visibility ( mi km ) Precip ( " mm )
12:53 am 00:53 Clear 86 30 66 18.9 51 51 N N/A 29.98 1015 10 16 N/A
1:53 am 01:53 Clear 84 28.9 68 20 59 59 SSE 5 7 29.98 1015 10 16 N/A
2:53 am 02:53 Mostly Clear 84 28.9 66 18.9 55 55 SE 5 7 29.99 1016 10 16 N/A
3:53 am 03:53 Partly Cloudy 83 28.3 64 17.8 53 53 SW 7 11 30.01 1016 10 16 N/A
4:53 am 04:53 Mostly Clear 84 28.9 64 17.8 51 51 SW 6 9 30.01 1016 10 16 N/A
5:53 am 05:53 Mostly Sunny 84 28.9 64 17.8 51 51 S 5 7 30.02 1017 10 16 N/A
6:53 am 06:53 Sunny 84 28.9 63 17.2 49 49 SE 5 7 30.03 1017 10 16 N/A
7:53 am 07:53 Sunny 87 30.6 63 17.2 45 45 N 5 7 30.04 1017 10 16 N/A
8:53 am 08:53 Sunny 90 32.2 61 16.1 38 38 NNW 7 11 30.06 1018 10 16 N/A
9:53 am 09:53 Mostly Cloudy 92 33.3 61 16.1 36 36 NNE 5 7 30.05 1018 10 16 N/A
10:53 am 10:53 Sunny 93 33.9 61 16.1 34 34 N N/A 30.05 1018 10 16 N/A
11:53 am 11:53 Sunny 95 35 61 16.1 32 32 S 5 7 30.03 1017 10 16 N/A
12:53 pm 12:53 Sunny 95 35 61 16.1 32 32 W 13 20 30.03 1017 10 16 N/A
1:03 pm 13:03 Sunny with Nearby Thunderstorms 95 35 60 15.6 31 31 W 9 15 29.87 1012 10 16 N/A
1:18 pm 13:18 Sunny with Thunderstorms 95 35 61 16.1 32 32 WSW 9 15 29.87 1012 10 16 N/A
1:33 pm 13:33 Sunny 94 34.4 60 15.6 32 32 N 10 17 29.87 1012 10 16 N/A
1:53 pm 13:53 Sunny 95 35 60 15.6 31 31 N 8 13 30.01 1016 10 16 N/A
2:14 pm 14:14 Sunny with Nearby Thunderstorms 96 35.6 60 15.6 30 30 VRB 3 6 29.85 1011 10 16 N/A
2:29 pm 14:29 Sunny 97 36.1 60 15.6 29 29 VRB 5 7 29.84 1011 10 16 N/A
2:53 pm 14:53 Sunny 97 36.1 60 15.6 29 29 N N/A 29.99 1016 10 16 N/A
3:53 pm 15:53 Sunny 98 36.7 58 14.4 26 26 N N/A 29.96 1015 10 16 N/A
4:53 pm 16:53 Sunny 100 37.8 58 14.4 25 25 NNW 3 6 29.94 1014 10 16 N/A
5:53 pm 17:53 Sunny 100 37.8 57 13.9 24 24 VRB 5 7 29.92 1013 10 16 N/A
6:53 pm 18:53 Sunny 100 37.8 57 13.9 24 24 NNW 6 9 29.93 1014 10 16 N/A
7:53 pm 19:53 Clear 98 36.7 57 13.9 25 25 N N/A 29.93 1014 10 16 N/A
8:53 pm 20:53 Clear 97 36.1 58 14.4 27 27 NNE 5 7 29.95 1014 10 16 N/A
9:53 pm 21:53 Clear 94 34.4 58 14.4 30 30 NE 5 7 29.97 1015 10 16 N/A
10:53 pm 22:53 Clear 93 33.9 58 14.4 31 31 NE 5 7 29.97 1015 10 16 N/A
11:53 pm 23:53 Clear 91 32.8 60 15.6 35 35 SW 3 6 29.98 1015 10 16 N/A

Powered by AerisWeather